Content
SEND FEEDBACK

Daily
Averages
Monthly
Summary
United States of America

MADERA, CALIFORNIA


Home > North America > United States > California
Elevation: 253 feet     Latitude: 36 59N     Longitude: 120 06W

WEATHER
 
SELECT A DAY
Number of Records: 153,265;   Date Range: 9/2/98 - 10/18/14
 
SHARE

PRINT THIS DATA

[ ← Previous Day ]
WEATHER ALMANAC - FEBRUARY 13, 2013
[ Next Day → ]
[ °C ]   °F
Weather ElementAverageHighLow
Temperature45.2 °F62.1 °F (1:53 pm) (10:53 am)
Dewpoint34.8 °F39 °F (8:53 am) (7:00 pm)
Humidity69.6 %93 % (7:53 am)39 % (3:53 pm)
Barometer30.28 in30.35 in (8:53 am)30.22 in (4:53 pm)
Wind Speed2 mph17.3 mph (3:53 pm)
Wind Gust27.6 mph (3:53 pm)
Weather ElementAverage
Visibility8.2 mi
Wind DirectionNE (40.9 °)

Weather ElementTotal
Precipitation---
Heating Degree Days34 (Base 65)
Averaged from 23 records on February 13, 2013
WEATHER CONDITIONS BREAKOUT
WIND DIRECTION BREAKOUT
WEATHER BY HOUR - FEBRUARY 13, 2013
[ °C ]   °F
Local TimeTemperatureDewpointHumidityBarometerVisibilityWind DirectionWind SpeedGust SpeedPrecipitationEventsConditions
1:53 AM39.0 °F35.1 °F86 %30.33 in7.0 miCalmClear
2:53 AM37.0 °F34.0 °F89 %30.32 in8.0 miCalmClear
3:53 AM35.1 °F32.0 °F89 %30.31 in5.0 miCalmClear
4:53 AM35.1 °F32.0 °F89 %30.32 in6.0 miCalmClear
5:53 AM33.1 °F30.9 °F92 %30.32 in5.0 miCalmClear
6:53 AM35.1 °F32.0 °F89 %30.33 in6.0 miSE (130°)4.6 mphClear
7:53 AM39.0 °F37.0 °F93 %30.34 in6.0 miCalmClear
8:53 AM45.0 °F39.0 °F80 %30.35 in10.0 miCalmClear
9:53 AM51.1 °F37.9 °F61 %30.35 in10.0 miENE (70°)3.5 mphClear
10:53 AM0.0 °F0.0 °F30.34 inNorthClear
11:53 AM57.9 °F37.0 °F46 %30.32 in10.0 miCalmClear
12:53 PM60.1 °F37.9 °F44 %30.29 in10.0 miCalmClear
1:53 PM62.1 °F37.9 °F41 %30.26 in10.0 miWNW (290°)4.6 mphClear
2:53 PM62.1 °F37.9 °F41 %30.24 in10.0 miNorthClear
3:53 PM62.1 °F37.0 °F39 %30.23 in10.0 miNE (50°)17.3 mph27.6 mphClear
4:53 PM60.1 °F37.9 °F44 %30.22 in10.0 miNorthClear
5:53 PM55.9 °F39.0 °F53 %30.22 in10.0 miNNW (340°)4.6 mphClear
6:53 PM50.0 °F37.9 °F63 %30.23 in10.0 miCalmClear
7:53 PM46.9 °F39.0 °F74 %30.23 in10.0 miCalmClear
8:53 PM45.0 °F37.9 °F76 %30.23 in10.0 miCalmClear
9:53 PM44.1 °F37.0 °F76 %30.24 in7.0 miCalmClear
10:53 PM43.0 °F37.0 °F80 %30.24 in6.0 miENE (60°)4.6 mphHaze
11:53 PM39.9 °F36.0 °F86 %30.24 in5.0 miCalmClear
Hourly data recorded from KMAE, located miles away from Madera, California







STORIES FROM OUR PARTNERS